World > North America > United States > New York

Hourly Middle Falls, NY Regional Weather

Feedback E-mail the Weather

Latest News

Middle Falls, NY Weather Maps

°F °C°F °C
Middle Falls Weather Map
UTC Time: 5/27/2022, 07:12
Your Time:

Middle Falls, NY Regional Weather

Expires:202205270800;;638147
ASUS41 KALY 270710
RWRALY

NEW YORK STATE HOURLY WEATHER ROUNDUP
NATIONAL WEATHER SERVICE ALBANY NY
300 AM EDT FRI MAY 27 2022

NOTE: "FAIR" INDICATES FEW OR NO CLOUDS BELOW 12,000 FEET WITH NO
SIGNIFICANT WEATHER AND/OR NO OBSTRUCTIONS TO VISIBILITY.


NYZ032-033-038>043-046>054-057>066-NYZ062>081-082-084-270800-
EAST

  
CITY           SKY/WX    TMP DP  RH WIND       PRES   REMARKS
ALBANY         CLOUDY    65  57  75 SE10G20   29.98F                  
GLENS FALLS    CLOUDY    64  57  78 S9        29.96F                  
POUGHKEEPSIE   CLOUDY    64  59  83 CALM      30.01F                  
MONTGOMERY     CLOUDY    61  60  97 CALM      30.01F                  
WHITE PLAINS   FOG       63  61  93 SE7       30.03F VSB 1/4          
ISLIP          CLOUDY    64  64 100 S10       30.04F                  
NEW YORK CITY  CLOUDY    64  61  90 S6        30.03F                  
CENTRAL PARK   CLOUDY    65  62  90 CALM      30.05F                  
$$


SKY/WX - Weather  TMP - Temperature  DP - Dew Point  RH - Humidity
WIND - Wind Direction/Speed PRES - Barometric Pressure VSB - Visibility
WCI - Wind Chill Index E13G22 Wind - East Wind 13 mph/Gusts of 22 mph

Trending Headlines

Middle Falls Radar Loop



Middle Falls Quick Facts


National Two Day Weather Forecast


E-mail the Middle Falls Weather Forecast

Voice your opinion or tell us about page issues...